Flag for Barbados Weather past 2 weeks in Bridgetown, Barbados

Now
81 °F

Broken clouds.


Feels Like: 85 °F
Forecast: 81 / 84 °F
Wind: 24 mph from Northeast

Location: Grantley Adams

Current Time: Jun 30, 2015 at 6:26:13 AM

Latest Report: Jun 30, 2015 at 6:00 AM


Visibility: N/A

Pressure: 30.01 "Hg

Humidity: 79%

Dew point: 73 °F

Location of BridgetownLocation

Historic Weather in Bridgetown — Graph

°F

Bridgetown temperature yesterday

Maximum temperature yesterday: 86 °F (at 11:00 AM)
Minimum temperature yesterday: 79 °F (at 5:00 AM)
Average temperature yesterday: 82 °F

Past Weeks' High & Low Weather Summary

 TemperatureHumidityPressure
High88 °F (Jun 19, 1:00 PM)94% (Jun 15, 7:00 PM)30.09 "Hg (Jun 15, 7:00 PM)
Low75 °F (Jun 21, 3:00 PM)59% (Jun 20, 11:00 AM)29.95 "Hg (Jun 15, 5:00 AM)
Average82 °F78%30.03 "Hg
* Reported Jun 15 5:00 AM — Jun 30 4:00 AM, Bridgetown, Weather by CustomWeather, © 2015

Note: Actual official high and low records may vary slightly from our data, if they occured in-between our weather recording intervals... More about our weather records

Advertising

Bridgetown weather history for previous 24 hours

 ConditionsComfort  
Time TempWeatherWind HumidityBarometerVisibility
4:00 AM
Tue, Jun 30
79 °FPassing clouds.24 mph89%29.98 "HgN/A
3:00 AM81 °FPartly cloudy.24 mph79%29.98 "HgN/A
2:00 AM81 °FPassing clouds.23 mph79%29.98 "HgN/A
1:00 AM81 °FPassing clouds.23 mph79%30.01 "HgN/A
12:00 AM81 °FPartly cloudy.24 mph79%30.04 "HgN/A
11:00 PM
Mon, Jun 29
81 °FPartly cloudy.23 mph79%30.04 "HgN/A
10:00 PM81 °FPartly cloudy.26 mph79%30.04 "HgN/A
9:00 PM81 °FPassing clouds.22 mph79%30.01 "HgN/A
8:00 PM81 °FPartly cloudy.26 mph74%30.01 "HgN/A
7:00 PM81 °FPassing clouds.23 mph79%30.01 "HgN/A
6:00 PM81 °FPartly sunny.24 mph79%29.98 "HgN/A
5:00 PM82 °FBroken clouds.25 mph70%29.98 "HgN/A
4:00 PM84 °FPartly sunny.24 mph66%29.98 "HgN/A
3:00 PM86 °FBroken clouds.29 mph62%29.98 "HgN/A
2:00 PM84 °FBroken clouds.28 mph70%30.01 "HgN/A
1:00 PM86 °FBroken clouds.29 mph66%30.01 "HgN/A
12:00 PM86 °FBroken clouds.28 mph62%30.04 "HgN/A
11:00 AM86 °FPartly sunny.30 mph62%30.04 "HgN/A
10:00 AM84 °FBroken clouds.29 mph70%30.04 "HgN/A
9:00 AM84 °FPartly sunny.26 mph66%30.04 "HgN/A
8:00 AM82 °FBroken clouds.28 mph74%30.04 "HgN/A
7:00 AM82 °FPartly sunny.25 mph74%30.04 "HgN/A
6:00 AM79 °FPartly sunny.21 mph79%30.01 "HgN/A
Weather by CustomWeather, © 2015

See weather overviewHow to use our weather pages